| time (UTC) | temp F | wind direction | speed MPH | gust MPH | rain 1hr in | rain 24hr in | rain mn in | humidity % | barometer mb |
| 20260507163003 | 91 | 20 | 3.0 | 10.0 | 0.00 | 0.00 | 0.00 | 64 | 1016.2 |
| 20260507161514 | 92 | 27 | 4.0 | 11.0 | 0.00 | 0.00 | 0.00 | 62 | 1016.3 |
| 20260507160015 | 92 | 63 | 3.0 | 9.0 | 0.00 | 0.00 | 0.00 | 60 | 1016.4 |
| 20260507154524 | 92 | 89 | 2.0 | 9.0 | 0.00 | 0.00 | 0.00 | 61 | 1016.5 |
| 20260507153024 | 93 | 164 | 2.0 | 9.0 | 0.00 | 0.00 | 0.00 | 59 | 1016.6 |
| 20260507151527 | 91 | 24 | 4.0 | 9.0 | 0.00 | 0.00 | 0.00 | 62 | 1016.6 |
| 20260507150040 | 91 | 83 | 3.0 | 11.0 | 0.00 | 0.00 | 0.00 | 59 | 1016.5 |
| 20260507144540 | 92 | 148 | 3.0 | 12.0 | 0.00 | 0.00 | 0.00 | 60 | 1016.6 |
| 20260507143045 | 91 | 141 | 2.0 | 6.0 | 0.00 | 0.00 | 0.00 | 62 | 1016.6 |
| 20260507141542 | 91 | 73 | 3.0 | 9.0 | 0.00 | 0.00 | 0.00 | 60 | 1016.7 |
| 20260507140048 | 91 | 66 | 4.0 | 14.0 | 0.00 | 0.00 | 0.00 | 63 | 1016.7 |
| 20260507134550 | 90 | 21 | 3.0 | 9.0 | 0.00 | 0.00 | 0.00 | 63 | 1016.7 |
| 20260507133048 | 88 | 177 | 3.0 | 9.0 | 0.00 | 0.00 | 0.00 | 64 | 1016.9 |
| 20260507131559 | 87 | 65 | 3.0 | 7.0 | 0.00 | 0.00 | 0.00 | 68 | 1016.9 |
| 20260507130106 | 86 | 58 | 3.0 | 7.0 | 0.00 | 0.00 | 0.00 | 69 | 1016.8 |
| 20260507124554 | 85 | 99 | 2.0 | 8.0 | 0.00 | 0.00 | 0.00 | 72 | 1016.8 |
| 20260507123054 | 83 | 54 | 5.0 | 11.0 | 0.00 | 0.00 | 0.00 | 74 | 1016.7 |
| 20260507121605 | 82 | 108 | 2.0 | 10.0 | 0.00 | 0.00 | 0.00 | 76 | 1016.7 |
| 20260507120011 | 80 | 57 | 1.0 | 9.0 | 0.00 | 0.00 | 0.00 | 77 | 1016.8 |
| 20260507114505 | 80 | 76 | 1.0 | 9.0 | 0.00 | 0.00 | 0.00 | 80 | 1016.7 |
| 20260507113006 | 79 | 70 | 2.0 | 6.0 | 0.00 | 0.00 | 0.00 | 82 | 1016.7 |
| 20260507111516 | 78 | 40 | 1.0 | 4.0 | 0.00 | 0.00 | 0.00 | 84 | 1016.6 |
| 20260507110018 | 76 | 143 | 1.0 | 4.0 | 0.00 | 0.00 | 0.00 | 85 | 1016.5 |
| 20260507104530 | 76 | 18 | 0.0 | 3.0 | 0.00 | 0.00 | 0.00 | 86 | 1016.6 |
| 20260507103032 | 75 | 37 | 1.0 | 8.0 | 0.00 | 0.00 | 0.00 | 85 | 1016.4 |
| 20260507101532 | 75 | 109 | 0.0 | 2.0 | 0.00 | 0.00 | 0.00 | 85 | 1016.3 |
| 20260507100042 | 75 | 45 | 0.0 | 5.0 | 0.00 | 0.00 | 0.00 | 84 | 1016.2 |
| 20260507094544 | 75 | 41 | 0.0 | 2.0 | 0.00 | 0.00 | 0.00 | 84 | 1016.0 |
| 20260507093053 | 75 | 58 | 1.0 | 3.0 | 0.00 | 0.00 | 0.00 | 83 | 1015.8 |
| 20260507091551 | 76 | 90 | 0.0 | 3.0 | 0.00 | 0.00 | 0.00 | 84 | 1015.8 |
| 20260507090047 | 76 | 91 | 0.0 | 4.0 | 0.00 | 0.00 | 0.00 | 84 | 1015.7 |
| 20260507084551 | 76 | 60 | 1.0 | 6.0 | 0.00 | 0.00 | 0.00 | 84 | 1015.7 |
| 20260507083050 | 76 | 57 | 1.0 | 3.0 | 0.00 | 0.00 | 0.00 | 84 | 1015.7 |
| 20260507081548 | 76 | 64 | 0.0 | 5.0 | 0.00 | 0.00 | 0.00 | 83 | 1015.7 |
| 20260507080048 | 76 | 170 | 0.0 | 3.0 | 0.00 | 0.00 | 0.00 | 83 | 1015.6 |
| 20260507074600 | 76 | 152 | 1.0 | 6.0 | 0.00 | 0.00 | 0.00 | 84 | 1015.6 |
| 20260507073047 | 77 | 73 | 1.0 | 5.0 | 0.00 | 0.00 | 0.00 | 84 | 1015.6 |
| 20260507071549 | 77 | 25 | 1.0 | 4.0 | 0.00 | 0.00 | 0.00 | 83 | 1015.8 |
| 20260507070051 | 77 | 59 | 1.0 | 5.0 | 0.00 | 0.00 | 0.00 | 83 | 1015.7 |
| 20260507064553 | 77 | 43 | 1.0 | 4.0 | 0.00 | 0.00 | 0.00 | 82 | 1015.8 |
| 20260507063054 | 77 | 60 | 2.0 | 6.0 | 0.00 | 0.00 | 0.00 | 83 | 1015.8 |
| 20260507061555 | 77 | 40 | 1.0 | 5.0 | 0.00 | 0.00 | 0.00 | 84 | 1016.0 |
| 20260507060052 | 77 | 56 | 2.0 | 6.0 | 0.00 | 0.00 | 0.00 | 84 | 1016.3 |
| 20260507054639 | 78 | 64 | 2.0 | 7.0 | 0.00 | 0.00 | 0.00 | 84 | 1016.5 |
| 20260507053105 | 78 | 74 | 1.0 | 5.0 | 0.00 | 0.00 | 0.00 | 84 | 1016.6 |
| 20260507051501 | 78 | 23 | 1.0 | 6.0 | 0.00 | 0.00 | 0.00 | 83 | 1016.8 |
| 20260507050011 | 78 | 136 | 1.0 | 8.0 | 0.00 | 0.00 | 0.00 | 83 | 1017.0 |
| 20260507044506 | 78 | 38 | 1.0 | 6.0 | 0.00 | 0.00 | 0.00 | 82 | 1017.2 |
| 20260507043017 | 78 | 12 | 1.0 | 8.0 | 0.00 | 0.00 | 0.00 | 82 | 1017.2 |
| 20260507041519 | 78 | 127 | 1.0 | 6.0 | 0.00 | 0.00 | 0.00 | 82 | 1017.4 |
| 20260507040022 | 78 | 40 | 0.0 | 10.0 | 0.00 | 0.00 | 0.00 | 81 | 1017.5 |
| 20260507034533 | 78 | 56 | 2.0 | 6.0 | 0.00 | 0.00 | 0.00 | 82 | 1017.5 |
| 20260507033034 | 78 | 43 | 2.0 | 4.0 | 0.00 | 0.00 | 0.00 | 80 | 1017.7 |
| 20260507031601 | 78 | 84 | 2.0 | 8.0 | 0.00 | 0.00 | 0.00 | 79 | 1017.9 |
| 20260507030053 | 78 | 107 | 2.0 | 9.0 | 0.00 | 0.00 | 0.00 | 79 | 1018.0 |
| 20260507024548 | 78 | 67 | 1.0 | 6.0 | 0.00 | 0.00 | 0.00 | 79 | 1017.9 |
| 20260507023101 | 78 | 359 | 2.0 | 10.0 | 0.00 | 0.00 | 0.00 | 78 | 1017.9 |
| 20260507021549 | 78 | 50 | 2.0 | 6.0 | 0.00 | 0.00 | 0.00 | 79 | 1017.9 |
| 20260507020055 | 78 | 33 | 2.0 | 9.0 | 0.00 | 0.00 | 0.00 | 79 | 1017.8 |
| 20260507014602 | 78 | 109 | 1.0 | 4.0 | 0.00 | 0.00 | 0.00 | 80 | 1017.7 |
| 20260507013055 | 79 | 129 | 0.0 | 3.0 | 0.00 | 0.00 | 0.00 | 80 | 1017.6 |
| 20260507011557 | 79 | 35 | 0.0 | 8.0 | 0.00 | 0.00 | 0.00 | 80 | 1017.5 |
| 20260507010105 | 79 | 158 | 2.0 | 10.0 | 0.00 | 0.00 | 0.00 | 80 | 1017.3 |
| 20260507004558 | 79 | 162 | 4.0 | 8.0 | 0.00 | 0.00 | 0.00 | 80 | 1017.1 |
| 20260507003100 | 79 | 77 | 0.0 | 4.0 | 0.00 | 0.00 | 0.00 | 80 | 1017.0 |
| 20260507001606 | 79 | 16 | 0.0 | 6.0 | 0.00 | 0.00 | 0.00 | 81 | 1016.9 |
| 20260507000101 | 79 | 70 | 4.0 | 10.0 | 0.00 | 0.00 | 0.00 | 81 | 1016.9 |
| 20260506234604 | 79 | 54 | 2.0 | 7.0 | 0.00 | 0.00 | 0.00 | 81 | 1016.7 |
| 20260506233002 | 79 | 164 | 1.0 | 8.0 | 0.00 | 0.00 | 0.00 | 80 | 1016.4 |
| 20260506231503 | 79 | 60 | 1.0 | 6.0 | 0.00 | 0.00 | 0.00 | 80 | 1016.2 |
| 20260506230014 | 79 | 64 | 3.0 | 6.0 | 0.00 | 0.00 | 0.00 | 79 | 1016.2 |
| 20260506224513 | 80 | 59 | 2.0 | 10.0 | 0.00 | 0.00 | 0.00 | 79 | 1016.1 |
| 20260506223024 | 80 | 50 | 2.0 | 9.0 | 0.00 | 0.00 | 0.00 | 78 | 1015.8 |
| 20260506221526 | 80 | 53 | 2.0 | 10.0 | 0.00 | 0.00 | 0.00 | 76 | 1015.6 |
| 20260506220028 | 81 | 71 | 4.0 | 11.0 | 0.00 | 0.00 | 0.00 | 75 | 1015.5 |
| 20260506214539 | 81 | 163 | 3.0 | 11.0 | 0.00 | 0.01 | 0.00 | 74 | 1015.4 |
| 20260506213044 | 82 | 52 | 5.0 | 11.0 | 0.00 | 0.01 | 0.00 | 73 | 1015.3 |
| 20260506211552 | 83 | 162 | 2.0 | 13.0 | 0.00 | 0.01 | 0.00 | 73 | 1015.1 |
| 20260506210057 | 84 | 58 | 3.0 | 12.0 | 0.00 | 0.01 | 0.00 | 71 | 1015.0 |
| 20260506204555 | 84 | 68 | 5.0 | 10.0 | 0.00 | 0.01 | 0.00 | 72 | 1015.0 |
| 20260506203055 | 84 | 359 | 4.0 | 10.0 | 0.00 | 0.01 | 0.00 | 73 | 1015.0 |
| 20260506201557 | 84 | 137 | 2.0 | 10.0 | 0.00 | 0.01 | 0.00 | 75 | 1015.1 |
| 20260506200058 | 84 | 73 | 5.0 | 14.0 | 0.00 | 0.01 | 0.00 | 76 | 1015.1 |
| 20260506194634 | 85 | 68 | 4.0 | 10.0 | 0.00 | 0.01 | 0.00 | 75 | 1015.3 |
| 20260506193106 | 85 | 66 | 4.0 | 11.0 | 0.00 | 0.01 | 0.00 | 74 | 1015.5 |
| 20260506191602 | 85 | 64 | 3.0 | 7.0 | 0.00 | 0.01 | 0.00 | 76 | 1015.6 |
| 20260506190000 | 86 | 75 | 6.0 | 12.0 | 0.00 | 0.01 | 0.00 | 74 | 1015.7 |
| 20260506184501 | 86 | 71 | 3.0 | 11.0 | 0.00 | 0.01 | 0.00 | 74 | 1015.8 |
| 20260506183003 | 86 | 16 | 4.0 | 12.0 | 0.00 | 0.01 | 0.00 | 74 | 1016.0 |
| 20260506181505 | 85 | 78 | 6.0 | 13.0 | 0.00 | 0.01 | 0.00 | 73 | 1016.2 |
| 20260506180006 | 85 | 359 | 4.0 | 13.0 | 0.00 | 0.01 | 0.00 | 72 | 1016.3 |
| 20260506174517 | 85 | 58 | 3.0 | 12.0 | 0.00 | 0.01 | 0.00 | 72 | 1016.5 |
| 20260506173018 | 85 | 47 | 4.0 | 11.0 | 0.00 | 0.01 | 0.00 | 71 | 1016.8 |
| 20260506171521 | 86 | 143 | 4.0 | 9.0 | 0.00 | 0.01 | 0.00 | 69 | 1017.0 |
| 20260506170030 | 88 | 48 | 4.0 | 12.0 | 0.00 | 0.01 | 0.00 | 67 | 1017.1 |
| 20260506164532 | 88 | 59 | 3.0 | 9.0 | 0.00 | 0.01 | 0.00 | 69 | 1017.2 |